This demonstration page uses our WeatherBlox Daily Observations layout. Learn more.

Left ArrowRight Arrow

53.62937, 11.41316

Hourly Observations for July 31, 2018

Temp ( °F °C ) Dew Point ( °F °C ) Humidity (%) Winds ( mph kmh ) Pressure ( in mb ) Visibility ( mi km ) Precip ( " mm )
6:50 am 06:50 Mostly Sunny 73 23 55 13 53 53 ESE 5 7 29.97 1015 7 11 N/A
7:20 am 07:20 Mostly Sunny 75 24 55 13 50 50 ESE 5 7 29.97 1015 7 11 N/A
7:50 am 07:50 Mostly Sunny 75 24 57 14 54 54 ESE 5 7 29.97 1015 7 11 N/A
8:20 am 08:20 Mostly Sunny 77 25 57 14 51 51 SE 5 7 29.97 1015 7 11 N/A
8:50 am 08:50 Mostly Sunny 79 26 59 15 51 51 SE 3 6 29.97 1015 7 11 N/A
9:20 am 09:20 Mostly Sunny 82 28 59 15 45 45 SSE 3 6 29.97 1015 7 11 N/A
9:50 am 09:50 Mostly Sunny 84 29 59 15 43 43 SSE 8 13 29.97 1015 7 11 N/A
10:20 am 10:20 Mostly Sunny 88 31 59 15 38 38 SSE 7 11 29.97 1015 7 11 N/A
10:50 am 10:50 Mostly Sunny 88 31 59 15 38 38 SSE 8 13 29.97 1015 7 11 N/A
11:20 am 11:20 Mostly Sunny 90 32 59 15 36 36 SE 10 17 29.97 1015 7 11 N/A
11:50 am 11:50 Mostly Sunny 90 32 59 15 36 36 SE 10 17 29.97 1015 7 11 N/A
12:20 pm 12:20 Mostly Sunny 93 34 61 16 34 34 SE 9 15 29.94 1014 7 11 N/A
12:50 pm 12:50 Mostly Sunny 93 34 59 15 32 32 SE 9 15 29.94 1014 7 11 N/A
1:20 pm 13:20 Mostly Sunny 95 35 59 15 30 30 SE 8 13 29.94 1014 7 11 N/A
1:50 pm 13:50 Mostly Sunny 93 34 61 16 34 34 VRB 5 7 29.94 1014 7 11 N/A
2:20 pm 14:20 Mostly Sunny 95 35 61 16 32 32 VRB 7 11 29.94 1014 7 11 N/A
2:50 pm 14:50 Mostly Sunny 95 35 61 16 32 32 S 13 20 29.94 1014 7 11 N/A
3:20 pm 15:20 Mostly Sunny 95 35 61 16 32 32 S 9 15 29.94 1014 7 11 N/A
3:50 pm 15:50 Mostly Sunny 93 34 59 15 32 32 WSW 8 13 29.94 1014 7 11 N/A
4:20 pm 16:20 Mostly Sunny 91 33 61 16 36 36 WSW 8 13 29.94 1014 7 11 N/A
4:50 pm 16:50 Mostly Sunny 93 34 61 16 34 34 SW 10 17 29.94 1014 7 11 N/A
5:20 pm 17:20 Mostly Sunny 93 34 61 16 34 34 WSW 7 11 29.94 1014 7 11 N/A
5:50 pm 17:50 Mostly Sunny 91 33 61 16 36 36 SW 7 11 29.94 1014 7 11 N/A
6:20 pm 18:20 Mostly Sunny 91 33 59 15 34 34 S 5 7 29.94 1014 7 11 N/A
6:50 pm 18:50 Mostly Sunny 95 35 57 14 28 28 S 5 7 29.94 1014 7 11 N/A
7:20 pm 19:20 Mostly Sunny 91 33 59 15 34 34 SW 7 11 29.94 1014 7 11 N/A
7:50 pm 19:50 Mostly Sunny 91 33 63 17 38 38 WSW 5 7 29.97 1015 7 11 N/A
8:20 pm 20:20 Mostly Sunny 90 32 63 17 41 41 W 3 6 29.97 1015 7 11 N/A
8:50 pm 20:50 Mostly Sunny 86 30 61 16 43 43 W 6 9 30.00 1016 7 11 N/A

Powered by AerisWeather